Location: Ladaux
(44.7006°N, 0.2434°W)
Time: 06:53:20
(UTC+00:00)

Daily predictions for brighter satellites

Satellite Brightness Start Highest point End
(mag) Time Altitude Azimuth Time Altitude Azimuth Time Altitude Azimuth
Cosmos 1655 Rocket 4.5 17:15:30 10° NNW 17:21:54 73° W 17:28:15 10° S
Cosmos 1809 Rocket 4.5 17:17:51 10° N 17:24:02 80° E 17:30:07 10° SSE
Cosmos 1908 3.8 17:21:31 10° SSW 17:25:19 63° W 17:29:11 10° N
H-2A R/B 3.7 17:23:46 10° E 17:26:48 15° ENE 17:29:51 10° NNE
Cosmos 2227 Rocket 3.0 17:23:39 10° N 17:28:38 31° NE 17:33:35 10° ESE
CZ-4 R/B 2.8 17:26:32 10° ESE 17:28:58 16° ENE 17:31:24 10° NNE
Cosmos 2266 Rocket 4.2 17:23:14 10° N 17:29:30 80° W 17:35:49 10° S
Cosmos 1892 4.2 17:28:39 10° NNE 17:31:16 17° ENE 17:33:52 10° ESE
BREEZE-M DEB (TANK) 4.4 17:30:15 10° W 17:33:43 50° N 17:45:26 10° ENE
Cosmos 1408 4.5 17:33:55 10° NE 17:35:22 12° ENE 17:36:50 10° E
NOAA 12 4.3 17:32:26 10° SSE 17:37:44 82° WSW 17:43:05 10° NNW
CZ-4C R/B 4.4 17:35:07 10° NNW 17:38:52 16° N 17:42:59 10° NE
Cosmos 1300 2.7 17:38:00 10° S 17:41:46 61° E 17:45:32 10° NNE
Cosmos 1953 Rocket 3.6 17:37:59 10° N 17:42:22 61° E 17:46:46 10° SSE
Cosmos 1697 Rocket 3.9 17:40:58 10° SSE 17:44:59 21° E 17:49:02 10° NE
Cosmos 2058 Rocket 3.5 17:40:52 10° SSE 17:45:04 42° E 17:49:20 10° NNE
Cosmos 1331 Rocket 4.1 17:40:20 10° SSW 17:45:30 84° WNW 17:50:41 10° NNE
SL-4 R/B 3.1 17:43:10 10° WNW 17:46:13 26° N 17:49:04 12° ENE
IRS-1C Rocket 4.2 17:42:28 10° SE 17:47:34 53° ENE 17:52:41 10° N
CZ-2D R/B 3.9 17:44:19 10° SE 17:47:43 32° ENE 17:51:09 10° N
SeaSat 1 4.1 17:46:28 12° ENE 17:48:49 16° NE 17:51:48 10° N
Cosmos 1346 Rocket 4.0 17:47:06 10° NNE 17:50:11 21° ENE 17:53:14 10° ESE
USA 305 4.0 17:46:40 10° NW 17:50:30 30° NNE 17:53:27 15° ENE
Cosmos 1825 4.1 17:50:37 10° NE 17:51:37 12° NE 17:51:37 12° NE
Cosmos 44 3.2 17:48:33 10° SW 17:53:02 83° NW 17:57:49 10° NNE
Cosmos 1315 Rocket 4.2 17:52:04 10° SE 17:54:45 18° E 17:56:19 14° ENE
NOAA 11 4.2 17:49:33 10° SSE 17:55:00 88° ENE 18:00:29 10° NNW
USA 306 3.9 17:53:05 10° NW 17:56:57 31° NNE 17:59:35 17° ENE
USA 215 4.3 17:51:39 11° ENE 17:56:59 31° N 18:02:33 10° NW
SAR-Lupe-4 3.4 17:56:37 10° NNE 18:00:13 78° ESE 18:03:48 10° S
ERS-2 2.9 17:56:44 10° N 18:00:18 53° WNW 18:03:51 10° SSW
BREEZE-M R/B 3.9 17:56:45 10° WNW 18:00:18 47° N 18:05:18 16° ENE
ATLAS 2AS CENTAUR R/B 4.2 17:55:01 10° NNW 18:00:58 24° NNE 18:05:17 14° ENE
Cosmos 968 Rocket 3.8 17:59:21 10° N 18:04:23 44° ENE 18:09:19 10° SE
Cosmos 1340 2.6 18:01:31 10° N 18:05:15 59° ENE 18:08:59 10° SSE
Cosmos 1980 Rocket 3.6 18:04:21 10° SE 18:07:19 16° ESE 18:07:19 16° ESE
Cosmos 2297 Rocket 2.1 18:03:07 10° NNW 18:08:48 70° ENE 18:14:26 10° SSE
COSMO-SKYMED 1 2.5 18:04:42 10° NNE 18:09:04 73° ESE 18:13:23 10° S
MOS 1 Rocket 4.2 18:05:44 10° NE 18:09:44 27° E 18:13:55 10° SSE
Cosmos 1076 Rocket 4.5 18:06:45 10° NNE 18:10:18 25° ENE 18:11:35 22° E
Aureole 3 Rocket 3.0 18:06:47 10° S 18:10:38 75° E 18:15:58 10° NNE
In-Cosmos 22 Rocket 4.0 18:06:08 10° N 18:11:29 67° ENE 18:16:56 10° SSE
S3M 4.2 18:08:51 10° SSE 18:14:35 45° E 18:20:24 10° NNE
Cosmos 1302 Rocket 4.0 18:11:13 10° SSW 18:16:29 87° WNW 18:21:48 10° NNE
SAR-Lupe-1 4.4 18:14:31 10° N 18:18:06 67° WNW 18:21:39 10° SSW
Lacrosse 5 3.7 18:16:59 10° NW 18:20:43 20° N 18:23:30 13° NE
SL-08 ROCKET BODY 4.4 18:15:10 10° N 18:21:13 61° ENE 18:27:20 10° SSE
Okean O Rocket 4.1 18:17:47 10° SSW 18:21:24 25° W 18:25:02 10° NW
FALCON 9 DEB 3.7 18:18:57 10° WSW 18:22:05 47° NNW 18:23:30 27° NNE
YAOGAN 1 2.6 18:18:32 10° SSE 18:22:44 54° ENE 18:26:58 10° N
Aureole 3 3.1 18:21:15 10° SSW 18:24:25 61° W 18:27:22 10° N
Cosmos 1486 Rocket 4.0 18:19:36 10° NNW 18:24:57 69° ENE 18:30:14 10° SSE
Cosmos 1417 Rocket 4.4 18:19:24 10° S 18:25:35 69° E 18:31:53 10° NNE
FALCON 9 DEB 3.9 18:23:13 10° W 18:26:18 41° NNW 18:27:30 28° NNE
Milstar 3 4.4 18:22:34 10° SW 18:27:32 21° S 18:31:53 12° SE
Cosmos 1812 Rocket 4.1 18:25:30 10° SSE 18:29:31 35° E 18:30:36 30° ENE
Cosmos 1455 2.4 18:26:41 10° SSE 18:30:16 43° E 18:31:13 35° NE
CZ-2C R/B 3.2 18:27:03 10° SSE 18:32:47 69° ENE 18:38:24 10° N
Cosmos 1503 Rocket 4.2 18:29:40 10° N 18:34:44 48° ENE 18:37:12 28° ESE
Cosmos 44 Rocket 4.1 18:31:49 10° S 18:35:27 29° SE 18:35:27 29° SE
Cosmos 2278 4.4 18:32:02 10° SSE 18:36:45 30° ESE 18:36:45 30° ESE
FALCON 9 DEB 4.1 18:35:21 10° W 18:38:24 37° NNW 18:39:10 32° N
CZ-4B R/B 4.3 18:36:29 10° NNW 18:38:42 17° WNW 18:40:53 10° WSW
Cosmos 2219 3.6 18:33:25 10° NNW 18:39:08 67° WSW 18:44:49 10° SSE
Cosmos 1939 Rocket 4.0 18:35:48 10° S 18:39:35 43° W 18:43:21 10° NNW
USA 307 3.3 18:36:01 10° NW 18:40:10 47° NNE 18:40:52 42° ENE
Meteor 2-10 Rocket 3.4 18:38:14 10° S 18:43:34 78° E 18:48:43 10° NNE
Cosmos 1553 Rocket 4.1 18:37:41 10° S 18:44:03 79° W 18:50:22 10° N
USA 308 3.2 18:40:50 10° NW 18:45:01 49° NNE 18:45:31 47° NE
Cosmos 1354 Rocket 4.1 18:41:10 10° NNW 18:46:19 53° ENE 18:47:53 39° ESE
Helios 1A Rocket 3.6 18:42:58 10° S 18:47:01 55° W 18:51:04 10° NNW
Cosmos 2082 3.6 18:42:10 10° NNW 18:47:53 66° ENE 18:50:45 30° SE
FALCON 9 DEB 4.3 18:47:09 10° W 18:50:04 31° NNW 18:50:17 30° NNW
Meteor 2-15 Rocket 4.3 18:45:49 10° S 18:51:56 77° E 18:58:06 10° NNE
Cosmos 1689 Rocket 4.5 18:50:45 10° NNW 18:53:08 23° WNW 18:55:31 10° SW
Okean-O 3.3 18:50:27 10° S 18:54:48 55° W 18:59:10 10° NNW
Cosmos 1992 Rocket 3.8 18:50:17 10° SSW 18:55:29 85° ESE 18:59:48 15° NNE
ARGOS 3.1 18:54:41 37° SE 18:56:42 59° ENE 19:02:03 10° N
Cosmos 2369 3.6 18:54:42 10° SSW 19:00:22 71° ESE 19:03:10 31° NE
Cosmos 1656 4.4 18:58:11 10° SW 19:03:36 53° WNW 19:09:08 10° NNE
CZ-4 R/B 2.5 18:59:58 10° S 19:03:41 42° W 19:07:23 10° NNW
H-2A R/B 2.1 19:00:01 10° SSE 19:05:27 89° WSW 19:10:57 10° NNW
Ariane Rocket 4.3 19:07:51 25° NNE 19:07:51 25° NNE 19:10:23 10° N
GEOS 3 Rocket 3.5 19:05:41 52° SE 19:07:01 80° NE 19:12:26 10° NW
Cosmos 2058 3.5 19:03:03 10° NNW 19:07:04 55° W 19:11:03 10° S
Cosmos 1892 4.3 19:03:30 10° NNW 19:07:06 36° W 19:10:40 10° SSW
Cosmos 220 Rocket 4.4 19:04:33 10° SSW 19:08:52 63° WNW 19:10:52 31° N
Geosat 4.0 19:06:43 28° NNE 19:09:24 83° WNW 19:14:26 10° SSW
Cosmos 1408 3.5 19:07:08 10° NNW 19:10:41 48° W 19:11:40 37° SW
Cosmos 1745 Rocket 4.3 19:04:42 10° NNW 19:10:56 67° W 19:17:12 10° S
Cosmos 2227 Rocket 3.2 19:07:29 10° NW 19:12:52 46° WSW 19:18:13 10° S
CSL-04 Rocket 3.8 19:09:13 10° S 19:14:46 75° WSW 19:20:18 10° NNW
Atlas Centaur 2 4.1 19:11:05 10° SW 19:18:05 29° S 19:20:08 26° SSE
Cosmos 2263 Rocket 3.3 19:13:35 10° NNW 19:17:16 30° NNE 19:17:16 30° NNE
Timation 1 Rocket 4.2 19:13:50 10° NNW 19:19:53 77° ENE 19:20:34 68° ESE
SeaSat 1 2.5 19:26:15 69° N 19:26:15 69° N 19:30:38 10° NNW
SL-4 R/B 3.7 19:22:50 10° NW 19:24:38 25° NW 19:24:38 25° NW
Cosmos 1825 4.0 19:24:31 10° NNW 19:26:28 27° NW 19:26:28 27° NW
Cosmos 1697 Rocket 3.1 19:22:52 10° SW 19:28:25 62° WNW 19:31:25 28° N
CZ-4C R/B 3.8 19:23:38 10° NNW 19:29:36 31° NNE 19:29:36 31° NNE
USA 305 3.9 19:26:36 10° NW 19:29:36 44° WNW 19:29:36 44° WNW
Cosmos 1315 Rocket 4.3 19:27:20 10° SW 19:31:00 35° WNW 19:32:10 29° NW
NOSS 3-4 (A) 3.9 19:24:30 10° NNW 19:31:21 57° NE 19:31:39 57° ENE
NOSS 3-4 (C) 3.9 19:24:36 10° NNW 19:31:27 57° NE 19:31:43 57° NE
DEBRIS 4.2 19:18:22 10° WSW 19:35:53 77° NNW 19:36:50 63° NE
USA 306 4.2 19:33:01 10° WNW 19:35:44 38° WNW 19:35:44 38° WNW
USA 215 3.6 19:39:00 50° NNE 19:39:08 50° NNE 19:45:23 10° NW
NOSS 3-3 (A) 4.3 19:33:56 10° SW 19:39:42 61° NW 19:41:47 41° NNE
NOSS 3-3 (C) 4.3 19:34:02 10° SW 19:39:51 61° NW 19:41:53 41° NNE
Cosmos 1709 Rocket 4.2 19:34:23 10° NNW 19:40:44 70° W 19:44:29 26° S
Cosmos 1980 Rocket 3.0 19:45:26 10° SSW 19:49:11 43° SW 19:49:11 43° SW
ATLAS 2AS CENTAUR R/B 3.0 19:46:07 10° NNW 19:52:43 57° NNE 19:52:43 57° NNE
Cosmos 2315 Rocket 4.4 19:53:20 10° SSW 19:59:25 58° WNW 20:05:33 10° N
Lacrosse 5 3.9 20:00:36 10° NW 20:02:41 21° NNW 20:02:41 21° NNW
CZ-4C R/B 4.4 21:11:48 10° NW 21:14:47 29° NW 21:14:47 29° NW
